Regional Weather Roundup
Issued by NWS New Orleans/Baton Rouge, LA

Home | Current Version | Previous Version | Graphics & Text | Print | Product List | Glossary On
Versions: 1 2 3 4 5 6 7 8 9 10 11 12 13 14 15 16 17 18 19 20 21 22 23 24 25 26 27 28 29 30 31 32 33 34 35 36 37 38 39 40 41 42 43 44 45 46 47 48 49 50
863
ASUS44 KLIX 291701
RWRLIX
NEW ORLEANS REGIONAL WEATHER ROUNDUP
NATIONAL WEATHER SERVICE NEW ORLEANS LA
1100 AM CST THU JAN 29 2015

NOTE: "FAIR" INDICATES FEW OR NO CLOUDS BELOW 12,000 FEET WITH NO
      SIGNIFICANT WEATHER AND/OR OBSTRUCTIONS TO VISIBILITY.
      SKY/WX - SKY CONDITION AND SIGNIFICANT WEATHER.
      TMP - AIR TEMPERATURE.     DP    - DEWPOINT TEMPERATURE.
      RH  - RELATIVE HUMIDITY.   PRES  - PRESSURE.
      HI  - HEAT INDEX.          WCI   - WIND CHILL INDEX.

*  THESE STATIONS ARE NOT NWS OR FAA STATIONS AND ARE NOT UNDER
   NWS QUALITY CONTROL.

LAZ038-040-048-061>063-065>067-069-291800-
SOUTHEAST LOUISIANA

CITY           SKY/WX    TMP DP  RH WIND       PRES   REMARKS
N.O. AUDUBON     N/A     73  59  61 MISG        N/A
N.O. INTL ARPT MOSUNNY   70  56  61 S9        30.28R
N.O. LAKEFRONT SUNNY     71  53  52 S7        30.28R
N.O. DOWNTOWN* NOT AVBL
SLIDELL        SUNNY     69  52  54 S9        30.28R
BATON ROUGE    MOSUNNY   68  57  68 SW9       30.27S
BOOTHVILLE     SUNNY     68  56  65 S9        30.28R
BELLE CHASSE   PTSUNNY   71  54  54 S8        30.27S
BOGALUSA*        N/A     69  52  53 SW8       30.29S
GALLIANO*      NOT AVBL
NEW ROADS*     NOT AVBL
GONZALES*      NOT AVBL
HAMMOND*       NOT AVBL
HOUMA*         MOSUNNY   72  61  68 S14       30.27R
PORT FOURCHON* SUNNY     70  59  68 S9G16     30.30S

$$

MSZ070-080>082-291800-
SOUTHERN MISSISSIPPI

CITY           SKY/WX    TMP DP  RH WIND       PRES   REMARKS
MCCOMB         MOSUNNY   66  55  67 SW12      30.25F
GULFPORT       SUNNY     66  51  58 S9        30.28R
BILOXI         SUNNY     67  54  62 S7        30.29R
PASCAGOULA     SUNNY     68  51  54 SW10      30.29R
STENNIS ARPT*  SUNNY     70  46  43 S9        30.28R

$$

COASTAL OBSERVATIONS
LAKE AND NEARSHORE STATIONS

STATION/POSITION TIME  TEMP    WIND        PRES    WAVE
                       AIR SEA DIR/SP/G            HT/PER
                 (UTC) (F)     (DEG/KT/KT) (MB)    (FT/S)

OFFSHORE STATIONS

STATION/POSITION TIME  TEMP    WIND        PRES    WAVE
                       AIR SEA DIR/SP/G            HT/PER
                 (UTC) (F)     (DEG/KT/KT) (MB)    (FT/S)
64 S DAUPHIN ISL 1616   65 69  160/ 14/ 16 1025.4    2/ 5

$$




USA.gov is the U.S. government's official web portal to all federal, state and local government web resources and services.